When you browse on this site, cookies collect data to enhance your experience and personalize the content and advertising you see.
Visit our Privacy Policy to learn more. By continuing to use the site, you agree to this use of cookies and data.
  • In Netherlands
  • List of Countries
  • For 7 days
  • Water Temperature
  • Weather Map
  • Weather Widgets
  • user-avatar
    Login

    Hourly Weather Kudagu

    Today, 24 February, Monday

    Time Temperature Precipitation Wind Pressure Humidity
    00:00 +1°C° 0 mm 1 mps 666 mmHg 83%
    01:00 +1°C° 0 mm 1 mps 665 mmHg 81%
    02:00 +1°C° 0 mm 1 mps 665 mmHg 80%
    03:00 +1°C° 0 mm 1 mps 664 mmHg 79%
    04:00 0°C° 0 mm 1 mps 664 mmHg 78%
    05:00 0°C° 0 mm 1 mps 664 mmHg 77%
    06:00 -2°C° 0 mm 2 mps 663 mmHg 75%
    07:00 -1°C° 0 mm 2 mps 664 mmHg 75%
    08:00 +1°C° 0 mm 2 mps 664 mmHg 75%
    09:00 +4°C° 0 mm 1 mps 664 mmHg 75%
    10:00 +3°C° 0 mm 2 mps 663 mmHg 76%
    11:00 +4°C° 0 mm 2 mps 662 mmHg 76%
    12:00 +3°C° 0 mm 3 mps 662 mmHg 77%
    13:00 +4°C° 0 mm 2 mps 661 mmHg 77%
    14:00 +4°C° 0 mm 2 mps 660 mmHg 78%
    15:00 +4°C° 0 mm 2 mps 659 mmHg 78%
    16:00 +4°C° 0 mm 2 mps 658 mmHg 78%
    17:00 +3°C° 0 mm 2 mps 658 mmHg 78%
    18:00 +2°C° 0 mm 2 mps 657 mmHg 78%
    19:00 +2°C° 0 mm 2 mps 656 mmHg 74%
    20:00 +2°C° 0 mm 2 mps 656 mmHg 70%
    21:00 +1°C° 0 mm 3 mps 656 mmHg 66%
    22:00 +1°C° 0 mm 3 mps 655 mmHg 64%
    23:00 +1°C° 0 mm 3 mps 655 mmHg 62%

    Tomorrow, 25 February, Tuesday

    Time Temperature Precipitation Wind Pressure Humidity
    00:00 +1°C° 0 mm 3 mps 654 mmHg 60%
    01:00 +1°C° 0 mm 3 mps 654 mmHg 59%
    02:00 0°C° 0 mm 4 mps 653 mmHg 58%
    03:00 0°C° 0 mm 4 mps 653 mmHg 56%
    04:00 0°C° 0 mm 4 mps 653 mmHg 56%
    05:00 0°C° 0 mm 4 mps 654 mmHg 56%
    06:00 0°C° 0 mm 4 mps 654 mmHg 56%
    07:00 +1°C° 0 mm 4 mps 655 mmHg 59%
    08:00 +1°C° 0 mm 4 mps 656 mmHg 62%
    09:00 +3°C° 0 mm 3 mps 657 mmHg 65%
    10:00 +2°C° 0 mm 3 mps 657 mmHg 68%
    11:00 +1°C° 0 mm 4 mps 658 mmHg 70%
    12:00 +1°C° 0 mm 4 mps 658 mmHg 73%
    13:00 +1°C° 0.5 mm 3 mps 658 mmHg 76%
    14:00 +1°C° 0.5 mm 3 mps 658 mmHg 79%
    15:00 0°C° 0.5 mm 3 mps 658 mmHg 82%
    16:00 0°C° 1.3 mm 3 mps 659 mmHg 85%
    17:00 -1°C° 1.3 mm 2 mps 659 mmHg 89%
    18:00 -2°C° 1.3 mm 2 mps 660 mmHg 92%
    19:00 0°C° 0.7 mm 1 mps 661 mmHg 89%
    20:00 0°C° 0.7 mm 1 mps 662 mmHg 86%
    21:00 0°C° 0.7 mm 1 mps 662 mmHg 83%
    22:00 -1°C° 0.1 mm 1 mps 663 mmHg 82%
    23:00 -2°C° 0.1 mm 1 mps 663 mmHg 81%

    Day after tomorrow, 26 February, Wednesday

    Time Temperature Precipitation Wind Pressure Humidity
    00:00 -2°C° 0.1 mm 1 mps 663 mmHg 80%
    01:00 -5°C° 0 mm 2 mps 663 mmHg 77%
    02:00 -5°C° 0 mm 2 mps 663 mmHg 73%
    03:00 -6°C° 0 mm 2 mps 664 mmHg 70%
    04:00 -6°C° 0 mm 2 mps 664 mmHg 67%
    05:00 -6°C° 0 mm 2 mps 664 mmHg 64%
    06:00 -6°C° 0 mm 2 mps 664 mmHg 62%
    07:00 -4°C° 0 mm 2 mps 665 mmHg 59%
    08:00 -1°C° 0 mm 1 mps 666 mmHg 56%
    09:00 +1°C° 0 mm 1 mps 667 mmHg 53%
    10:00 +1°C° 0 mm 2 mps 667 mmHg 56%
    11:00 +2°C° 0 mm 2 mps 666 mmHg 58%
    12:00 +1°C° 0 mm 3 mps 666 mmHg 61%
    13:00 +2°C° 0 mm 3 mps 666 mmHg 63%
    14:00 +3°C° 0 mm 2 mps 666 mmHg 64%
    15:00 +3°C° 0 mm 2 mps 666 mmHg 66%
    16:00 +2°C° 0 mm 2 mps 665 mmHg 66%
    17:00 +1°C° 0 mm 2 mps 665 mmHg 66%
    18:00 -1°C° 0 mm 2 mps 665 mmHg 66%
    19:00 -1°C° 0 mm 2 mps 665 mmHg 61%
    20:00 -1°C° 0 mm 2 mps 665 mmHg 56%
    21:00 +1°C° 0 mm 2 mps 664 mmHg 51%
    22:00 +1°C° 0 mm 2 mps 664 mmHg 48%
    23:00 +1°C° 0 mm 2 mps 664 mmHg 44%

    27 February, Thursday

    Time Temperature Precipitation Wind Pressure Humidity
    00:00 0°C° 0 mm 3 mps 664 mmHg 40%
    01:00 +1°C° 0 mm 3 mps 663 mmHg 38%
    02:00 +1°C° 0 mm 3 mps 663 mmHg 36%
    03:00 +1°C° 0 mm 3 mps 663 mmHg 35%
    04:00 +1°C° 0 mm 3 mps 663 mmHg 34%
    05:00 +2°C° 0 mm 3 mps 663 mmHg 34%
    06:00 +3°C° 0 mm 2 mps 663 mmHg 33%
    07:00 +5°C° 0 mm 2 mps 664 mmHg 37%
    08:00 +6°C° 0 mm 2 mps 664 mmHg 41%
    09:00 +8°C° 0 mm 2 mps 665 mmHg 45%
    10:00 +9°C° 0 mm 2 mps 665 mmHg 48%
    11:00 +10°C° 0 mm 2 mps 665 mmHg 52%
    12:00 +12°C° 0 mm 2 mps 665 mmHg 55%
    13:00 +12°C° 0 mm 2 mps 664 mmHg 54%
    14:00 +12°C° 0 mm 2 mps 664 mmHg 54%
    15:00 +13°C° 0 mm 2 mps 664 mmHg 54%
    16:00 +10°C° 0 mm 2 mps 663 mmHg 51%
    17:00 +9°C° 0 mm 2 mps 663 mmHg 48%
    18:00 +7°C° 0 mm 2 mps 662 mmHg 45%
    19:00 +7°C° 0 mm 3 mps 662 mmHg 42%
    20:00 +7°C° 0 mm 3 mps 662 mmHg 38%
    21:00 +7°C° 0 mm 3 mps 662 mmHg 35%
    22:00 +7°C° 0 mm 3 mps 662 mmHg 35%
    23:00 +7°C° 0 mm 3 mps 661 mmHg 35%

    28 February, Friday

    Time Temperature Precipitation Wind Pressure Humidity
    00:00 +7°C° 0 mm 3 mps 661 mmHg 35%
    01:00 +7°C° 0 mm 3 mps 660 mmHg 35%
    02:00 +6°C° 0 mm 4 mps 660 mmHg 35%
    03:00 +6°C° 0 mm 4 mps 659 mmHg 35%
    04:00 +6°C° 0 mm 4 mps 659 mmHg 33%
    05:00 +6°C° 0 mm 4 mps 659 mmHg 32%
    06:00 +7°C° 0 mm 4 mps 658 mmHg 31%
    07:00 +8°C° 0 mm 4 mps 658 mmHg 33%
    08:00 +8°C° 0 mm 4 mps 658 mmHg 35%
    09:00 +10°C° 0 mm 3 mps 658 mmHg 36%
    10:00 +11°C° 0 mm 3 mps 658 mmHg 39%
    11:00 +12°C° 0 mm 3 mps 658 mmHg 42%
    12:00 +14°C° 0 mm 2 mps 658 mmHg 45%
    13:00 +14°C° 0 mm 2 mps 657 mmHg 47%
    14:00 +13°C° 0 mm 2 mps 657 mmHg 48%
    15:00 +13°C° 0 mm 2 mps 657 mmHg 50%
    16:00 +10°C° 0 mm 2 mps 657 mmHg 50%
    17:00 +9°C° 0 mm 2 mps 656 mmHg 50%
    18:00 +7°C° 0 mm 2 mps 656 mmHg 50%
    19:00 +7°C° 0 mm 2 mps 656 mmHg 49%
    20:00 +6°C° 0 mm 2 mps 657 mmHg 49%
    21:00 +6°C° 0 mm 2 mps 657 mmHg 49%
    22:00 +6°C° 0 mm 2 mps 657 mmHg 48%
    23:00 +6°C° 0 mm 2 mps 657 mmHg 48%

    29 February, Saturday

    Time Temperature Precipitation Wind Pressure Humidity
    00:00 +6°C° 0 mm 2 mps 657 mmHg 48%
    01:00 +5°C° 0 mm 2 mps 657 mmHg 51%
    02:00 +5°C° 0 mm 2 mps 657 mmHg 53%
    03:00 +5°C° 0 mm 2 mps 657 mmHg 56%
    04:00 +4°C° 0 mm 2 mps 658 mmHg 59%
    05:00 +5°C° 0 mm 1 mps 658 mmHg 63%
    06:00 +4°C° 0 mm 1 mps 659 mmHg 66%
    07:00 +5°C° 0 mm 1 mps 659 mmHg 68%
    08:00 +4°C° 0 mm 2 mps 660 mmHg 70%
    09:00 +5°C° 0 mm 2 mps 661 mmHg 72%
    10:00 +3°C° 0 mm 3 mps 661 mmHg 78%
    11:00 +3°C° 0 mm 3 mps 661 mmHg 83%
    12:00 +2°C° 0 mm 3 mps 661 mmHg 88%
    13:00 +1°C° 0.2 mm 3 mps 661 mmHg 90%
    14:00 +1°C° 0.2 mm 3 mps 661 mmHg 91%
    15:00 0°C° 0.2 mm 3 mps 660 mmHg 92%
    16:00 -1°C° 0.5 mm 3 mps 661 mmHg 91%
    17:00 -1°C° 0.5 mm 2 mps 661 mmHg 90%
    18:00 -2°C° 0.5 mm 2 mps 662 mmHg 88%
    19:00 -2°C° 0.2 mm 2 mps 662 mmHg 87%
    20:00 0°C° 0.2 mm 1 mps 662 mmHg 85%
    21:00 0°C° 0.2 mm 1 mps 663 mmHg 83%
    22:00 0°C° 0 mm 1 mps 663 mmHg 81%
    23:00 0°C° 0 mm 1 mps 663 mmHg 80%
    Show more